Time,TemperatureF,DewpointF,PressureIn,WindDirection,WindDirectionDegrees,WindSpeedMPH,WindSpeedGustMPH,Humidity,HourlyPrecipIn,Conditions,Clouds,dailyrainin,SolarRadiationWatts/m^2,SoftwareType,DateUTC
2013-10-04 00:16:00,26.0,23.0,-100.00,North,349,4.0,13.0,88,0.00,,,0.49,0.000000,,2013-10-04 06:16:00,
2013-10-04 00:24:00,26.0,23.0,-100.00,North,349,4.0,13.0,88,0.00,,,0.49,0.000000,,2013-10-04 06:24:00,
2013-10-04 00:34:00,26.0,23.0,-100.00,North,349,4.0,13.0,88,0.00,,,0.49,0.000000,,2013-10-04 06:34:00,
2013-10-04 01:15:00,26.0,23.0,-100.00,North,352,6.0,14.0,89,0.00,,,0.49,0.000000,,2013-10-04 07:15:00,
2013-10-04 01:24:00,26.0,23.0,-100.00,North,352,6.0,14.0,89,0.00,,,0.49,0.000000,,2013-10-04 07:24:00,
2013-10-04 01:34:00,26.0,23.0,-100.00,North,352,6.0,14.0,89,0.00,,,0.49,0.000000,,2013-10-04 07:34:00,
2013-10-04 02:15:00,26.0,22.0,-100.00,NNW,346,6.0,15.0,86,0.00,,,0.49,0.000000,,2013-10-04 08:15:00,
2013-10-04 02:24:00,26.0,22.0,-100.00,NNW,346,6.0,15.0,86,0.00,,,0.49,0.000000,,2013-10-04 08:24:00,
2013-10-04 02:34:00,26.0,22.0,-100.00,NNW,346,6.0,15.0,86,0.00,,,0.49,0.000000,,2013-10-04 08:34:00,
2013-10-04 03:15:00,26.0,22.0,-100.00,NNW,348,5.0,16.0,84,0.00,,,0.39,0.000000,,2013-10-04 09:15:00,
2013-10-04 03:24:00,26.0,22.0,-100.00,NNW,348,5.0,16.0,84,0.00,,,0.39,0.000000,,2013-10-04 09:24:00,
2013-10-04 03:36:00,26.0,22.0,-100.00,NNW,348,5.0,16.0,84,0.00,,,0.39,0.000000,,2013-10-04 09:36:00,
2013-10-04 04:18:00,26.0,21.0,-100.00,North,359,5.0,13.0,82,0.00,,,0.29,0.000000,,2013-10-04 10:18:00,
2013-10-04 04:27:00,26.0,21.0,-100.00,North,359,5.0,13.0,82,0.00,,,0.29,0.000000,,2013-10-04 10:27:00,
2013-10-04 04:36:00,26.0,21.0,-100.00,North,359,5.0,13.0,82,0.00,,,0.29,0.000000,,2013-10-04 10:36:00,
2013-10-04 05:17:00,26.0,21.0,-100.00,North,357,8.0,16.0,80,0.00,,,-99.99,0.000000,,2013-10-04 11:17:00,
2013-10-04 05:26:00,26.0,21.0,-100.00,North,357,8.0,16.0,80,0.00,,,-99.99,0.000000,,2013-10-04 11:26:00,
2013-10-04 05:36:00,26.0,21.0,-100.00,North,357,8.0,16.0,80,0.00,,,-99.99,0.000000,,2013-10-04 11:36:00,
2013-10-04 06:17:00,26.0,20.0,-100.00,NNW,341,5.0,15.0,79,0.00,,,0.21,0.000000,,2013-10-04 12:17:00,
2013-10-04 06:26:00,26.0,20.0,-100.00,NNW,341,5.0,15.0,79,0.00,,,0.21,0.000000,,2013-10-04 12:26:00,
2013-10-04 06:36:00,26.0,20.0,-100.00,NNW,341,5.0,15.0,79,0.00,,,0.21,0.000000,,2013-10-04 12:36:00,
2013-10-04 07:16:00,26.0,21.0,-100.00,NNW,347,5.0,12.0,80,0.00,,,0.18,0.000000,,2013-10-04 13:16:00,
2013-10-04 07:26:00,26.0,21.0,-100.00,NNW,347,5.0,12.0,80,0.00,,,0.18,0.000000,,2013-10-04 13:26:00,
2013-10-04 07:35:00,26.0,21.0,-100.00,NNW,347,5.0,12.0,80,0.00,,,0.18,0.000000,,2013-10-04 13:35:00,
2013-10-04 08:16:00,26.0,21.0,-100.00,North,350,5.0,16.0,80,0.00,,,0.15,0.000000,,2013-10-04 14:16:00,
2013-10-04 08:26:00,26.0,21.0,-100.00,North,350,5.0,16.0,80,0.00,,,0.15,0.000000,,2013-10-04 14:26:00,
2013-10-04 08:36:00,26.0,21.0,-100.00,North,350,5.0,16.0,80,0.00,,,0.15,0.000000,,2013-10-04 14:36:00,
2013-10-04 09:17:00,27.0,22.0,-100.00,North,354,4.0,10.0,80,0.00,,,0.14,8.000000,,2013-10-04 15:17:00,
2013-10-04 09:27:00,27.0,22.0,-100.00,North,354,4.0,10.0,80,0.00,,,0.14,8.000000,,2013-10-04 15:27:00,
2013-10-04 09:36:00,27.0,22.0,-100.00,North,354,4.0,10.0,80,0.00,,,0.14,8.000000,,2013-10-04 15:36:00,
2013-10-04 10:17:00,29.0,23.0,-100.00,NNW,347,5.0,12.0,77,0.00,,,0.12,27.000000,,2013-10-04 16:17:00,
2013-10-04 10:27:00,29.0,23.0,-100.00,NNW,347,5.0,12.0,77,0.00,,,0.12,27.000000,,2013-10-04 16:27:00,
2013-10-04 10:36:00,29.0,23.0,-100.00,NNW,347,5.0,12.0,77,0.00,,,0.12,27.000000,,2013-10-04 16:36:00,
2013-10-04 11:17:00,31.0,23.0,-100.00,North,4,5.0,12.0,71,0.00,,,0.12,50.000000,,2013-10-04 17:17:00,
2013-10-04 11:27:00,31.0,23.0,-100.00,North,4,5.0,12.0,71,0.00,,,0.12,50.000000,,2013-10-04 17:27:00,
2013-10-04 11:37:00,31.0,23.0,-100.00,North,4,5.0,12.0,71,0.00,,,0.12,50.000000,,2013-10-04 17:37:00,
2013-10-04 12:17:00,32.0,22.0,-100.00,North,357,6.0,15.0,66,0.00,,,0.12,94.000000,,2013-10-04 18:17:00,
2013-10-04 12:27:00,32.0,22.0,-100.00,North,357,6.0,15.0,66,0.00,,,0.12,94.000000,,2013-10-04 18:27:00,
2013-10-04 12:37:00,32.0,22.0,-100.00,North,357,6.0,15.0,66,0.00,,,0.12,94.000000,,2013-10-04 18:37:00,
2013-10-04 13:12:00,34.0,23.0,-100.00,NNW,345,7.0,18.0,65,0.00,,,0.12,89.000000,,2013-10-04 19:12:00,
2013-10-04 13:22:00,34.0,23.0,-100.00,NNW,345,7.0,18.0,65,0.00,,,0.12,89.000000,,2013-10-04 19:22:00,
2013-10-04 13:32:00,34.0,23.0,-100.00,NNW,345,7.0,18.0,65,0.00,,,0.12,89.000000,,2013-10-04 19:32:00,
2013-10-04 14:11:00,37.0,24.0,-100.00,NNW,347,5.0,16.0,58,0.00,,,0.12,294.000000,,2013-10-04 20:11:00,
2013-10-04 14:22:00,37.0,24.0,-100.00,NNW,347,5.0,16.0,58,0.00,,,0.12,294.000000,,2013-10-04 20:22:00,
2013-10-04 14:32:00,37.0,24.0,-100.00,NNW,347,5.0,16.0,58,0.00,,,0.12,294.000000,,2013-10-04 20:32:00,
2013-10-04 15:12:00,40.0,23.0,-100.00,North,6,5.0,12.0,51,0.00,,,0.12,737.000000,,2013-10-04 21:12:00,
2013-10-04 15:22:00,40.0,23.0,-100.00,North,6,5.0,12.0,51,0.00,,,0.12,737.000000,,2013-10-04 21:22:00,
2013-10-04 15:33:00,40.0,23.0,-100.00,North,6,5.0,12.0,51,0.00,,,0.12,737.000000,,2013-10-04 21:33:00,
2013-10-04 16:12:00,38.0,24.0,-100.00,North,5,4.0,11.0,56,0.00,,,0.08,504.000000,,2013-10-04 22:12:00,
2013-10-04 16:23:00,38.0,24.0,-100.00,North,5,4.0,11.0,56,0.00,,,0.08,504.000000,,2013-10-04 22:23:00,
2013-10-04 16:33:00,38.0,24.0,-100.00,North,5,4.0,11.0,56,0.00,,,0.08,504.000000,,2013-10-04 22:33:00,
2013-10-04 17:12:00,38.0,23.0,-100.00,NNE,30,5.0,10.0,55,0.00,,,0.02,240.000000,,2013-10-04 23:12:00,
2013-10-04 17:22:00,38.0,23.0,-100.00,NNE,30,5.0,10.0,55,0.00,,,0.02,240.000000,,2013-10-04 23:22:00,
2013-10-04 17:33:00,38.0,23.0,-100.00,NNE,30,5.0,10.0,55,0.00,,,0.02,240.000000,,2013-10-04 23:33:00,
2013-10-04 18:12:00,36.0,21.0,-100.00,NNE,21,4.0,10.0,54,0.00,,,0.00,40.000000,,2013-10-05 00:12:00,
2013-10-04 18:22:00,36.0,21.0,-100.00,NNE,21,4.0,10.0,54,0.00,,,0.00,40.000000,,2013-10-05 00:22:00,
2013-10-04 18:32:00,36.0,21.0,-100.00,NNE,21,4.0,10.0,54,0.00,,,0.00,40.000000,,2013-10-05 00:32:00,
2013-10-04 19:11:00,35.0,23.0,-100.00,NNW,344,3.0,8.0,61,0.00,,,0.00,26.000000,,2013-10-05 01:11:00,
2013-10-04 19:21:00,35.0,23.0,-100.00,NNW,344,3.0,8.0,61,0.00,,,0.00,26.000000,,2013-10-05 01:21:00,
2013-10-04 19:32:00,35.0,23.0,-100.00,NNW,344,3.0,8.0,61,0.00,,,0.00,26.000000,,2013-10-05 01:32:00,
2013-10-04 20:11:00,29.0,24.0,-100.00,WSW,246,0.0,4.0,81,0.00,,,0.00,2.000000,,2013-10-05 02:11:00,
2013-10-04 20:22:00,29.0,24.0,-100.00,WSW,246,0.0,4.0,81,0.00,,,0.00,2.000000,,2013-10-05 02:22:00,
2013-10-04 20:32:00,29.0,24.0,-100.00,WSW,246,0.0,4.0,81,0.00,,,0.00,2.000000,,2013-10-05 02:32:00,
2013-10-04 21:12:00,27.0,24.0,-100.00,SW,232,0.0,2.0,89,0.00,,,0.00,0.000000,,2013-10-05 03:12:00,
2013-10-04 21:22:00,27.0,24.0,-100.00,SW,232,0.0,2.0,89,0.00,,,0.00,0.000000,,2013-10-05 03:22:00,
2013-10-04 21:34:00,27.0,24.0,-100.00,SW,232,0.0,2.0,89,0.00,,,0.00,0.000000,,2013-10-05 03:34:00,
2013-10-04 22:14:00,26.0,24.0,-100.00,South,172,1.0,2.0,92,0.00,,,0.00,0.000000,,2013-10-05 04:14:00,
2013-10-04 22:24:00,26.0,24.0,-100.00,South,172,1.0,2.0,92,0.00,,,0.00,0.000000,,2013-10-05 04:24:00,
2013-10-04 22:33:00,26.0,24.0,-100.00,South,172,1.0,2.0,92,0.00,,,0.00,0.000000,,2013-10-05 04:33:00,
2013-10-04 23:13:00,24.0,22.0,-100.00,SSW,209,0.0,2.0,93,0.00,,,0.00,0.000000,,2013-10-05 05:13:00,
2013-10-04 23:22:00,24.0,22.0,-100.00,SSW,209,0.0,2.0,93,0.00,,,0.00,0.000000,,2013-10-05 05:22:00,
2013-10-04 23:33:00,24.0,22.0,-100.00,SSW,209,0.0,2.0,93,0.00,,,0.00,0.000000,,2013-10-05 05:33:00,